Regional Weather Roundup
Issued by NWS Sterling, VA

Home | Current Version | Previous Version | Graphics & Text | Print | Product List | Glossary On
Versions: 1 2 3 4 5 6 7 8 9 10 11 12 13 14 15 16 17 18 19 20 21 22 23 24 25 26 27 28 29 30 31 32 33 34 35 36 37 38 39 40 41 42 43 44
000
ASUS41 KLWX 281710
RWRLWX

REGIONAL WEATHER ROUNDUP
NATIONAL WEATHER SERVICE BALTIMORE MD/WASHINGTON DC
100 PM EDT FRI AUG 28 2015

Note: "FAIR" indicates few or no clouds below 12,000 feet
with no significant weather and/or obstructions to visibility.
 TC=TEMPERATURE CELSIUS

 * =Non NWS site. Station does not report precipitation (e.g. rain,
    snow, etc.), thunder, or fog.

DCZ001-MDZ009-015-VAZ040>042-051-053>054-281800-
WASHINGTON METRO

CITY           SKY/WX    TMP DP  RH WIND       PRES   REMARKS
WASHINGTON NAT PTSUNNY   80  56  43 CALM      30.20F
DULLES         MOSUNNY   79  57  46 SW7       30.20F
ANDREWS AFB    PTSUNNY   78  57  47 VRB5      30.19F
FT BELVOIR     MOSUNNY   79  59  50 SE7       30.19F
QUANTICO       MOSUNNY   77  59  53 S5        30.21F
COLLEGE PARK*  PTSUNNY   79  54  41 CALM      30.19F
LEESBURG*      SUNNY     82  61  47 S6        30.22F
MANASSAS*      SUNNY     79  57  47 CALM      30.21F
GAITHERSBURG*  PTSUNNY   77  55  47 NW5       30.24F

$$

MDZ006>007-011-014-281800-
BALTIMORE METRO

CITY           SKY/WX    TMP DP  RH WIND       PRES   REMARKS
BWI AIRPORT    MOSUNNY   78  55  44 SW3       30.19F
MD SCIENCE CTR   N/A     79  57  46 MISG      30.20F
MARTIN STATE   MOSUNNY   79  63  57 SE9       30.21F
ANNAPOLIS      SUNNY     76  58  53 SE6       30.20F
FORT MEADE*    MOSUNNY   77  55  47 CALM      30.22F

$$

MDZ012-015-019>023-281800-
MARYLAND EASTERN SHORE

CITY           SKY/WX    TMP DP  RH WIND       PRES   REMARKS
OCEAN CITY     SUNNY     78  57  48 E12       30.20F
SALISBURY      MOSUNNY   80  56  43 NE7       30.19F
BAY BRIDGE AP*   N/A     77  52  41 NW6       30.20F
CAMBRIDGE*     SUNNY     79  55  44 CALM      30.19F

$$

MDZ017>025-281800-
SOUTHERN MARYLAND

CITY           SKY/WX    TMP DP  RH WIND       PRES   REMARKS
PATUXENT RIVER MOSUNNY   79  57  46 NE7       30.20F
ST INIGOES     SUNNY     80  61  52 N5        30.19F
LEONARDTOWN*   SUNNY     77  59  53 CALM      30.22S

$$

MDZ003>005-281800-
NORTH CENTRAL MARYLAND

CITY           SKY/WX    TMP DP  RH WIND       PRES   REMARKS
FREDERICK*     PTSUNNY   82  57  42 W5        30.23F
HAGERSTOWN APT MOSUNNY   77  54  44 MISG      30.21F
WESTMINSTER*   MOSUNNY   77  54  44 W5        30.21F

$$

MDZ501>502-281800-
WESTERN MARYLAND

CITY           SKY/WX    TMP DP  RH WIND       PRES   REMARKS
OAKLAND*       PTSUNNY   68  54  60 W5        30.27F
CUMBERLAND*    SUNNY     79  55  44 CALM      30.24F

$$

VAZ025>031-281800-
SHENANDOAH VALLEY

CITY           SKY/WX    TMP DP  RH WIND       PRES   REMARKS
WINCHESTER*    PTSUNNY   79  55  44 S6        30.21F
FRONT ROYAL*   PTSUNNY   81  59  47 S3        30.20F
LURAY*         PTSUNNY   79  55  44 W6        30.21S
NEW MARKET*    PTSUNNY   79  59  49 SW5       30.19F
STAUNTON*      MOSUNNY   82  58  45 S8        30.24F
WAYNESBORO*    PTSUNNY   77  60  55 W3        30.24S

$$

WVZ021-048>050-054>055-281800-
EASTERN WEST VIRGINIA PANHANDLE

CITY           SKY/WX    TMP DP  RH WIND       PRES   REMARKS
MARTINSBURG    MOSUNNY   78  55  44 CALM      30.21F
PETERSBURG*    MOSUNNY   78  58  49 NE3       30.21F

$$

VAZ036>039-050-281800-
CENTRAL FOOTHILLS

CITY           SKY/WX    TMP DP  RH WIND       PRES   REMARKS
CHARLOTTESVILL PTSUNNY   79  59  50 CALM      30.21F
CULPEPER*      MOSUNNY   78  60  54 S3        30.21F
ORANGE*        PTSUNNY   82  59  44 CALM      30.22F
GORDONSVILLE*  PTSUNNY   80  62  52 SW7       30.20F
WARRENTON*     PTSUNNY   80  62  54 SE5       30.20F

$$

VAZ055>057-281800-
NORTH AND CENTRAL PIEDMONT

CITY           SKY/WX    TMP DP  RH WIND       PRES   REMARKS
FREDERICKSBRG* PTSUNNY   81  59  45 SE3       30.19F
STAFFORD*      MOSUNNY   79  58  48 E5        30.24F

$$

NCZ024-NYZ072-PAZ021-071-VAZ022-071-281800-
OTHER REGIONAL OBSERVATIONS

CITY           SKY/WX    TMP DP  RH WIND       PRES   REMARKS
NEW YORK CITY  SUNNY     79  49  34 VRB3      30.20F
PITTSBURGH     MOSUNNY   73  51  46 S3        30.21F
ROANOKE        MOSUNNY   79  62  56 VRB7      30.24F
RICHMOND       MOSUNNY   82  57  42 VRB3      30.20F
RALEIGH        MOSUNNY   83  58  42 NE8       30.21F

$$

ANZ530>537-281800-
MARINE OBSERVATIONS

STATION/POSITION TIME  TEMP    WIND        PRES
                       AIR SEA DIR/SP/G
                 (UTC) (F)     (DEG/KT/KT) (MB)
THOMAS PT LIGHT  NOT AVBL
BALT KEY BRIDGE  1600   72     130/  6/  8 1023.1F
COVE POINT       1600   73      20/  4/  8 1024.0S
LEWISETTA        1600   75 78   90/  5/  5 1022.9S
SOLOMONS ISLAND  1600      81                N/A
PINEY POINT      1600          230/  3/  4   N/A

$$



USA.gov is the U.S. government's official web portal to all federal, state and local government web resources and services.